Time,TemperatureF,DewpointF,PressureIn,WindDirection,WindDirectionDegrees,WindSpeedMPH,WindSpeedGustMPH,Humidity,HourlyPrecipIn,Conditions,Clouds,dailyrainin,SolarRadiationWatts/m^2,SoftwareType,DateUTC
2013-11-30 00:01:00,37.0,27.0,-100.00,West,266,13.0,21.0,67,0.00,,,0.00,0.000000,,2013-11-30 07:01:00,
2013-11-30 00:42:00,37.0,28.0,-100.00,SW,229,5.0,16.0,69,0.00,,,0.00,0.000000,,2013-11-30 07:42:00,
2013-11-30 00:52:00,37.0,28.0,-100.00,SW,229,5.0,16.0,69,0.00,,,0.00,0.000000,,2013-11-30 07:52:00,
2013-11-30 01:01:00,37.0,28.0,-100.00,SW,229,5.0,16.0,69,0.00,,,0.00,0.000000,,2013-11-30 08:01:00,
2013-11-30 01:42:00,36.0,28.0,-100.00,SW,226,5.0,14.0,72,0.00,,,0.00,0.000000,,2013-11-30 08:42:00,
2013-11-30 01:52:00,36.0,28.0,-100.00,SW,226,5.0,14.0,72,0.00,,,0.00,0.000000,,2013-11-30 08:52:00,
2013-11-30 02:02:00,36.0,28.0,-100.00,SW,226,5.0,14.0,72,0.00,,,0.00,0.000000,,2013-11-30 09:02:00,
2013-11-30 02:43:00,36.0,29.0,-100.00,West,260,5.0,13.0,75,0.00,,,0.00,0.000000,,2013-11-30 09:43:00,
2013-11-30 02:53:00,36.0,29.0,-100.00,West,260,5.0,13.0,75,0.00,,,0.00,0.000000,,2013-11-30 09:53:00,
2013-11-30 03:03:00,36.0,29.0,-100.00,West,260,5.0,13.0,75,0.00,,,0.00,0.000000,,2013-11-30 10:03:00,
2013-11-30 03:42:00,36.0,29.0,-100.00,WSW,258,7.0,13.0,76,0.00,,,0.00,0.000000,,2013-11-30 10:42:00,
2013-11-30 03:53:00,36.0,29.0,-100.00,WSW,258,7.0,13.0,76,0.00,,,0.00,0.000000,,2013-11-30 10:53:00,
2013-11-30 04:02:00,36.0,29.0,-100.00,WSW,258,7.0,13.0,76,0.00,,,0.00,0.000000,,2013-11-30 11:02:00,
2013-11-30 04:42:00,36.0,29.0,-100.00,West,260,10.0,16.0,77,0.00,,,0.00,0.000000,,2013-11-30 11:42:00,
2013-11-30 04:52:00,36.0,29.0,-100.00,West,260,10.0,16.0,77,0.00,,,0.00,0.000000,,2013-11-30 11:52:00,
2013-11-30 05:02:00,36.0,29.0,-100.00,West,260,10.0,16.0,77,0.00,,,0.00,0.000000,,2013-11-30 12:02:00,
2013-11-30 05:42:00,36.0,29.0,-100.00,SW,224,6.0,16.0,77,0.00,,,0.00,0.000000,,2013-11-30 12:42:00,
2013-11-30 05:52:00,36.0,29.0,-100.00,SW,224,6.0,16.0,77,0.00,,,0.00,0.000000,,2013-11-30 12:52:00,
2013-11-30 06:01:00,36.0,29.0,-100.00,SW,224,6.0,16.0,77,0.00,,,0.00,0.000000,,2013-11-30 13:01:00,
2013-11-30 06:42:00,35.0,29.0,-100.00,South,173,3.0,14.0,77,0.00,,,0.00,0.000000,,2013-11-30 13:42:00,
2013-11-30 06:52:00,35.0,29.0,-100.00,South,173,3.0,14.0,77,0.00,,,0.00,0.000000,,2013-11-30 13:52:00,
2013-11-30 07:01:00,35.0,29.0,-100.00,South,173,3.0,14.0,77,0.00,,,0.00,0.000000,,2013-11-30 14:01:00,
2013-11-30 07:42:00,36.0,29.0,-100.00,WSW,237,4.0,7.0,76,0.00,,,0.00,0.000000,,2013-11-30 14:42:00,
2013-11-30 07:52:00,36.0,29.0,-100.00,WSW,237,4.0,7.0,76,0.00,,,0.00,0.000000,,2013-11-30 14:52:00,
2013-11-30 08:02:00,36.0,29.0,-100.00,WSW,237,4.0,7.0,76,0.00,,,0.00,0.000000,,2013-11-30 15:02:00,
2013-11-30 08:43:00,36.0,30.0,-100.00,West,267,7.0,15.0,78,0.00,,,0.00,2.000000,,2013-11-30 15:43:00,
2013-11-30 08:54:00,36.0,30.0,-100.00,West,267,7.0,15.0,78,0.00,,,0.00,2.000000,,2013-11-30 15:54:00,
2013-11-30 09:03:00,36.0,30.0,-100.00,West,267,7.0,15.0,78,0.00,,,0.00,2.000000,,2013-11-30 16:03:00,
2013-11-30 09:43:00,36.0,29.0,-100.00,WSW,254,6.0,14.0,74,0.00,,,-99.99,37.000000,,2013-11-30 16:43:00,
2013-11-30 09:53:00,36.0,29.0,-100.00,WSW,254,6.0,14.0,74,0.00,,,-99.99,37.000000,,2013-11-30 16:53:00,
2013-11-30 10:02:00,36.0,29.0,-100.00,WSW,254,6.0,14.0,74,0.00,,,-99.99,37.000000,,2013-11-30 17:02:00,
2013-11-30 10:42:00,36.0,30.0,-100.00,West,259,7.0,16.0,79,0.00,,,0.00,47.000000,,2013-11-30 17:42:00,
2013-11-30 10:53:00,36.0,30.0,-100.00,West,259,7.0,16.0,79,0.00,,,0.00,47.000000,,2013-11-30 17:53:00,
2013-11-30 11:01:00,36.0,30.0,-100.00,West,259,7.0,16.0,79,0.00,,,0.00,47.000000,,2013-11-30 18:01:00,
2013-11-30 11:42:00,36.0,29.0,-100.00,WSW,254,8.0,16.0,77,0.00,,,0.00,62.000000,,2013-11-30 18:42:00,
2013-11-30 11:52:00,36.0,29.0,-100.00,WSW,254,8.0,16.0,77,0.00,,,0.00,62.000000,,2013-11-30 18:52:00,
2013-11-30 12:01:00,36.0,29.0,-100.00,WSW,254,8.0,16.0,77,0.00,,,0.00,62.000000,,2013-11-30 19:01:00,
2013-11-30 12:42:00,37.0,28.0,-100.00,West,263,7.0,17.0,71,0.00,,,0.00,87.000000,,2013-11-30 19:42:00,
2013-11-30 12:52:00,37.0,28.0,-100.00,West,263,7.0,17.0,71,0.00,,,0.00,87.000000,,2013-11-30 19:52:00,
2013-11-30 13:02:00,37.0,28.0,-100.00,West,263,7.0,17.0,71,0.00,,,0.00,87.000000,,2013-11-30 20:02:00,
2013-11-30 13:42:00,37.0,30.0,-100.00,West,271,10.0,16.0,77,0.00,,,0.00,123.000000,,2013-11-30 20:42:00,
2013-11-30 13:52:00,37.0,30.0,-100.00,West,271,10.0,16.0,77,0.00,,,0.00,123.000000,,2013-11-30 20:52:00,
2013-11-30 14:02:00,37.0,30.0,-100.00,West,271,10.0,16.0,77,0.00,,,0.00,123.000000,,2013-11-30 21:02:00,
2013-11-30 14:43:00,37.0,31.0,-100.00,West,271,12.0,18.0,79,0.00,,,0.00,148.000000,,2013-11-30 21:43:00,
2013-11-30 14:53:00,37.0,31.0,-100.00,West,271,12.0,18.0,79,0.00,,,0.00,148.000000,,2013-11-30 21:53:00,
2013-11-30 15:03:00,37.0,31.0,-100.00,West,271,12.0,18.0,79,0.00,,,0.00,148.000000,,2013-11-30 22:03:00,
2013-11-30 15:42:00,36.0,33.0,-100.00,West,265,12.0,21.0,87,0.00,,,0.00,115.000000,,2013-11-30 22:42:00,
2013-11-30 15:52:00,36.0,33.0,-100.00,West,265,12.0,21.0,87,0.00,,,0.00,115.000000,,2013-11-30 22:52:00,
2013-11-30 16:02:00,36.0,33.0,-100.00,West,265,12.0,21.0,87,0.00,,,0.00,115.000000,,2013-11-30 23:02:00,
2013-11-30 16:42:00,36.0,31.0,-100.00,West,263,12.0,23.0,81,0.00,,,0.00,47.000000,,2013-11-30 23:42:00,
2013-11-30 16:53:00,36.0,31.0,-100.00,West,263,12.0,23.0,81,0.00,,,0.00,47.000000,,2013-11-30 23:53:00,
2013-11-30 17:02:00,36.0,31.0,-100.00,West,263,12.0,23.0,81,0.00,,,0.00,47.000000,,2013-12-01 00:02:00,
2013-11-30 17:42:00,35.0,29.0,-100.00,West,273,11.0,17.0,80,0.00,,,0.00,6.000000,,2013-12-01 00:42:00,
2013-11-30 17:52:00,35.0,29.0,-100.00,West,273,11.0,17.0,80,0.00,,,0.00,6.000000,,2013-12-01 00:52:00,
2013-11-30 18:01:00,35.0,29.0,-100.00,West,273,11.0,17.0,80,0.00,,,0.00,6.000000,,2013-12-01 01:01:00,
2013-11-30 18:42:00,35.0,29.0,-100.00,WSW,253,10.0,19.0,78,0.00,,,0.00,0.000000,,2013-12-01 01:42:00,
2013-11-30 18:52:00,35.0,29.0,-100.00,WSW,253,10.0,19.0,78,0.00,,,0.00,0.000000,,2013-12-01 01:52:00,
2013-11-30 19:01:00,35.0,29.0,-100.00,WSW,253,10.0,19.0,78,0.00,,,0.00,0.000000,,2013-12-01 02:01:00,
2013-11-30 19:42:00,35.0,29.0,-100.00,WSW,252,8.0,21.0,78,0.00,,,0.00,0.000000,,2013-12-01 02:42:00,
2013-11-30 19:52:00,35.0,29.0,-100.00,WSW,252,8.0,21.0,78,0.00,,,0.00,0.000000,,2013-12-01 02:52:00,
2013-11-30 20:01:00,35.0,29.0,-100.00,WSW,252,8.0,21.0,78,0.00,,,0.00,0.000000,,2013-12-01 03:01:00,
2013-11-30 20:44:00,35.0,29.0,-100.00,SW,236,5.0,21.0,78,0.00,,,0.00,0.000000,,2013-12-01 03:44:00,
2013-11-30 20:53:00,35.0,29.0,-100.00,SW,236,5.0,21.0,78,0.00,,,0.00,0.000000,,2013-12-01 03:53:00,
2013-11-30 21:02:00,-999.0,-99.9,-100.00,SW,236,5.0,21.0,-999,0.00,,,0.00,0.000000,,2013-12-01 04:02:00,
2013-11-30 21:42:00,36.0,29.0,-100.00,SW,221,5.0,14.0,76,0.00,,,0.00,0.000000,,2013-12-01 04:42:00,
2013-11-30 21:52:00,36.0,29.0,-100.00,SW,221,5.0,14.0,76,0.00,,,0.00,0.000000,,2013-12-01 04:52:00,
2013-11-30 22:02:00,36.0,29.0,-100.00,SW,221,5.0,14.0,76,0.00,,,0.00,0.000000,,2013-12-01 05:02:00,
2013-11-30 22:43:00,35.0,28.0,-100.00,SSE,165,3.0,12.0,75,0.00,,,0.00,0.000000,,2013-12-01 05:43:00,
2013-11-30 22:53:00,35.0,28.0,-100.00,SSE,165,3.0,12.0,75,0.00,,,0.00,0.000000,,2013-12-01 05:53:00,
2013-11-30 23:02:00,35.0,28.0,-100.00,SSE,165,3.0,12.0,75,0.00,,,0.00,0.000000,,2013-12-01 06:02:00,
2013-11-30 23:42:00,35.0,28.0,-100.00,SE,133,4.0,8.0,76,0.00,,,0.00,0.000000,,2013-12-01 06:42:00,
2013-11-30 23:52:00,35.0,28.0,-100.00,SE,133,4.0,8.0,76,0.00,,,0.00,0.000000,,2013-12-01 06:52:00,